Weather Roundup
Issued by NWS Springfield, MO

Home | Current Version | Previous Version | Text Only | Print | Product List | Glossary On
Versions: 1 2 3 4 5 6 7 8 9 10 11 12 13 14 15 16 17 18 19 20 21 22 23 24 25 26 27 28 29 30 31 32 33 34 35 36 37 38 39 40 41 42 43 44 45 46 47 48 49 50
000
NZUS99 KSGF 070459
HRRSGF

HOURLY WEATHER
NATIONAL WEATHER SERVICE SPRINGFIELD MO
1200 AM CDT THU MAY 07 2015

......SGF CWA......

CITY           SKY/WX    TMP DP  RH WIND       PRES   REMARKS
SPRINGFIELD    MOCLDY    69  55  60 SE15G24   29.95F
JOPLIN         LGT RAIN  71  58  63 SE16G25   29.91R
WEST PLAINS    CLOUDY    65  54  67 SE6       30.04S
ROLLA          MOCLDY    67  52  58 SE10      30.00S
OSAGE BEACH    PTCLDY    70  54  56 SE3       29.98S

......SURROUNDING SGF CWA......

CITY           SKY/WX    TMP DP  RH WIND       PRES   REMARKS
CHANUTE        CLOUDY    70  57  63 S14G24    29.86R
PARSONS        CLOUDY    71  57  61 S8        29.88R
COFFEYVILLE    CLOUDY    70  57  63 S13G24    29.87R
EMPORIA        LGT RAIN  67  61  81 S30G44    29.79F
SILOAM SPRINGS CLOUDY    70  55  60 S8        29.98R
HARRISON AR    CLOUDY    65  57  75 SE6       30.00F
NEAR YELLVILLE CLOUDY    70  55  60 E3        29.99R

......KANSAS AND MISSOURI......

CITY           SKY/WX    TMP DP  RH WIND       PRES   REMARKS
KANSAS CTY INT PTCLDY    70  56  61 S22G30    29.84F
DOWNTOWN KC    MOCLDY    72  55  55 S17G25    29.85F
COLUMBIA       PTCLDY    69  55  60 SE10      29.98S
SEDALIA        MOCLDY    70  55  59 S16       29.94F
ST JOSEPH      MOCLDY    71  56  58 S18G25    29.83S
ST LOUIS       PTCLDY    75  53  46 SE7       30.04R
SPIRIT OF STL  CLEAR     65  54  67 CALM      30.02R
KIRKSVILLE     CLEAR     65  58  78 S12       29.95S
WICHITA        TSTM      68  65  90 SE13      29.82S
TOPEKA         PTCLDY    71  57  61 SE18G26   29.81S
OLATHE         MOCLDY    68  57  68 SE16      29.86F

......TENNESSEE......

CITY           SKY/WX    TMP DP  RH WIND       PRES   REMARKS
MEMPHIS        CLEAR     72  53  51 S6        30.05S
NASHVILLE      CLEAR     66  58  75 CALM      30.11S

......ARKANSAS.......

CITY           SKY/WX    TMP DP  RH WIND       PRES   REMARKS
FAYETTEVILLE   CLOUDY    70  60  70 S16G23    29.97S
FT SMITH       CLOUDY    73  58  59 SE5       29.94F
LITTLE ROCK    PTCLDY    70  57  63 CALM      30.01R

......OKLAHOMA.......

CITY           SKY/WX    TMP DP  RH WIND       PRES   REMARKS
TULSA          TSTM      72  64  76 S18G35    29.88R
PONCA CITY     MOCLDY    72  64  76 E10G17    29.85R
MCALESTER      CLOUDY    74  63  68 SE7       29.93R
OKLAHOMA CITY  MOCLDY    67  61  81 E15       29.85F

......IOWA............

CITY           SKY/WX    TMP DP  RH WIND       PRES   REMARKS
DES MOINES     CLOUDY    69  58  67 SE17      29.86F
QUAD CITIES    MOCLDY    65  59  81 E8        29.99S

......ILLINOIS........

CITY           SKY/WX    TMP DP  RH WIND       PRES   REMARKS
QUINCY         CLEAR     68  52  56 SE7       30.00R
CHICAGO        PTCLDY    56  50  80 E3        30.06F




USA.gov is the U.S. government's official web portal to all federal, state and local government web resources and services.